Other Public Products
Issued by NWS Charleston, SC

Current Version | Previous Version | Graphics & Text | Print | Product List | Glossary On
Versions: 1 2 3 4 5 6 7 8 9 10 11 12 13 14 15 16 17 18 19 20 21 22 23 24 25 26 27 28 29 30 31 32 33 34 35 36 37 38 39 40 41 42 43 44 45 46 47 48 49 50
163
FPUS82 KCHS 240928
OPUCHS

TEST...KCHS/KSAV Gateway Observations...TEST
National Weather Service Charleston SC
500 AM EDT SUN SEP 24 2017

NOTE: "fair" indicates few or no clouds below 12,000 feet with no
significant weather and/or obstructions to visibility.

SCZ050-WAZ558-NCZ071-TXZ119-213-PAZ071-DCZ001-FLZ074-172-MI076-
NYZ176-178-MAZ016-IL014-TNZ027-NJZ106-GAZ044-MD014-241000-

...Gateway Observations for Charleston International...

CITY           SKY/WX    TMP DP  RH WIND       PRES   REMARKS
Chas Airport   CLOUDY    70  69  97 N8        29.97S
Seattle        CLEAR     54  47  77 N5        30.14R
Charlotte      PTCLDY    66  63  90 N5        30.08R
Dallas DFW     PTCLDY    77  68  73 S8        29.88S
Dallas Love    PTCLDY    77  68  73 S9        29.90R
Philladelphia  CLEAR     71  60  68 N7        30.05R
Wash National  MOCLDY    68  61  78 N3        30.07S
Baltimore      PTCLDY    62  59  90 CALM      30.06R
Miami          PTCLDY    80  79  96 CALM      29.81S
Detroit        CLEAR     68  63  84 CALM      30.15S
Newark         CLEAR     68  58  70 N3        30.05R
Laguardia      CLEAR     72  61  68 NE3       30.04R
J F K          CLEAR     66  60  81 N3        30.06R
Boston Logan   CLEAR     62  61  96 CALM      30.03S
Ft. Lauderdale MOCLDY    81  78  91 N6        29.81R THUNDER
Chicago O`Hare CLEAR     72  65  78 SE3       30.07S
Chicago Midway CLEAR     76  65  68 SE3       30.07S
Houston Bush   PTCLDY    73  72  96 CALM      29.88F
Houston Hobby  PTCLDY    76  72  87 CALM      29.87F
Nashville      CLEAR     69  68  96 CALM      30.03R
Atlanta        PTCLDY    71  65  81 CALM      30.04R

$$

GAZ044-118-TXZ119-213-NCZ071-DCZ001-MDZ014-506-PAZ021-071-NJZ106-
NYZ176-178-MAZ106-OHZ011-021-055-MIZ076-KYZ091-ILZ014-INZ047-
MNZ060-ONZ431-241000-

...Gateway Observations for Savannah International...

CITY           SKY/WX    TMP DP  RH WIND       PRES   REMARKS
Savannah Arpt  NOT AVBL
Atlanta        PTCLDY    71  65  81 CALM      30.04R
Charlotte      PTCLDY    66  63  90 N5        30.08R
Dallas DFW     PTCLDY    77  68  73 S8        29.88S
Houston Bush   PTCLDY    73  72  96 CALM      29.88F
Wash National  MOCLDY    68  61  78 N3        30.07S
Wash Dulles    PTCLDY    62  60  93 N3        30.08S
Baltimore      PTCLDY    62  59  90 CALM      30.06R
Philadelphia   CLEAR     71  60  68 N7        30.05R
Newark         CLEAR     68  58  70 N3        30.05R
Laguardia      CLEAR     72  61  68 NE3       30.04R
J F K          CLEAR     66  60  81 N3        30.06R
Boston         CLEAR     62  61  96 CALM      30.03S
Pittsburg      CLEAR     62  58  86 CALM      30.15R
Akron          CLEAR     67  60  78 CALM      30.16R
Cleveland      CLEAR     67  60  78 CALM      30.16R
Cincinnati     CLEAR     69  63  81 E3        30.09S
Columbus       CLEAR     61  59  95 NE5       30.11S
Detroit        CLEAR     68  63  84 CALM      30.15S
Chicago O`Hare CLEAR     72  65  78 SE3       30.07S
Minneapolis    PTCLDY    76  65  68 S10       29.93F
Indianapolis   CLEAR     70  64  81 E6        30.09R
Toronto Canada CLEAR     70  64  83 N3        30.12S

$$




USA.gov is the U.S. government's official web portal to all federal, state and local government web resources and services.